BENGL11 KNQX-KCOF

Flight info

Callsign BENGL11
Flight time N/A
Altitude 11500
Route KTTS
Aircraft VF35/M-SDFIRY/LB1

Departure

Time N/A
Airport Naval Air Station Key West/Boca Chica Field (KNQX)

Arrival

Time 2026-05-08 00:37
Airport Patrick Space Force Base (KCOF)
Time Latitude Longitude Altitude Speed Heading
2026-05-08 00:07 25.49258 -80.75892 9842 ft 412 kts 56°
2026-05-08 00:07 25.50456 -80.73037 10221 ft 414 kts 76°
2026-05-08 00:07 25.51033 -80.69921 10372 ft 414 kts 80°
2026-05-08 00:08 25.51758 -80.66832 10457 ft 414 kts 71°
2026-05-08 00:08 25.53069 -80.63513 10696 ft 561 kts 62°
2026-05-08 00:08 25.55291 -80.59467 11385 ft 633 kts 56°
2026-05-08 00:08 25.57790 -80.55447 12137 ft 632 kts 54°
2026-05-08 00:09 25.60385 -80.51520 12897 ft 631 kts 53°
2026-05-08 00:09 25.63109 -80.47788 13667 ft 630 kts 46°
2026-05-08 00:09 25.66229 -80.44383 14376 ft 628 kts 42°
2026-05-08 00:09 25.69305 -80.40943 15069 ft 627 kts 47°
2026-05-08 00:10 25.72265 -80.37404 15783 ft 624 kts 44°
2026-05-08 00:10 25.75296 -80.33973 16507 ft 622 kts 46°
2026-05-08 00:10 25.78329 -80.30553 17061 ft 621 kts 39°
2026-05-08 00:10 25.81945 -80.27908 17305 ft 626 kts 24°
2026-05-08 00:11 25.86061 -80.26345 17424 ft 627 kts
2026-05-08 00:11 25.90390 -80.26000 17501 ft 625 kts 354°
2026-05-08 00:11 25.94687 -80.26718 17505 ft 623 kts 347°
2026-05-08 00:11 25.98926 -80.27772 17480 ft 623 kts 346°
2026-05-08 00:12 26.03147 -80.28877 17485 ft 623 kts 346°
2026-05-08 00:12 26.07377 -80.29957 17486 ft 623 kts 346°
2026-05-08 00:12 26.11556 -80.30990 17490 ft 623 kts 346°
2026-05-08 00:12 26.15796 -80.32018 17493 ft 623 kts 346°
2026-05-08 00:13 26.20037 -80.33031 17497 ft 623 kts 347°
2026-05-08 00:13 26.24271 -80.34032 17499 ft 623 kts 347°
2026-05-08 00:13 26.28513 -80.35025 17499 ft 623 kts 347°
2026-05-08 00:13 26.32764 -80.35973 17504 ft 624 kts 351°
2026-05-08 00:14 26.37090 -80.36467 17518 ft 625 kts 354°
2026-05-08 00:14 26.41411 -80.36956 17495 ft 624 kts 350°
2026-05-08 00:14 26.45720 -80.37587 17471 ft 625 kts 353°
2026-05-08 00:14 26.50045 -80.38085 17466 ft 624 kts 351°
2026-05-08 00:15 26.54357 -80.38697 17474 ft 625 kts 352°
2026-05-08 00:15 26.58684 -80.39224 17480 ft 625 kts 352°
2026-05-08 00:15 26.62999 -80.39803 17489 ft 624 kts 351°
2026-05-08 00:15 26.67321 -80.40364 17492 ft 625 kts 352°
2026-05-08 00:16 26.71638 -80.40918 17496 ft 624 kts 351°
2026-05-08 00:16 26.75948 -80.41492 17494 ft 624 kts 352°
2026-05-08 00:16 26.80267 -80.42046 17497 ft 624 kts 351°
2026-05-08 00:16 26.84528 -80.42608 17496 ft 624 kts 351°
2026-05-08 00:17 26.87442 -80.42990 17492 ft 624 kts 352°
2026-05-08 00:17 26.93160 -80.43734 17495 ft 624 kts 351°
2026-05-08 00:17 26.97474 -80.44302 17498 ft 624 kts 351°
2026-05-08 00:17 27.01784 -80.44863 17500 ft 624 kts 351°
2026-05-08 00:18 27.06107 -80.45307 17522 ft 626 kts 360°
2026-05-08 00:18 27.09044 -80.45039 17583 ft 630 kts
2026-05-08 00:18 27.13255 -80.43591 17627 ft 636 kts 24°
2026-05-08 00:18 27.17026 -80.40976 17656 ft 642 kts 38°
2026-05-08 00:19 27.20524 -80.37869 17618 ft 640 kts 29°
2026-05-08 00:19 27.24445 -80.35717 17650 ft 634 kts 14°
2026-05-08 00:19 27.28738 -80.34756 17669 ft 627 kts 359°
2026-05-08 00:19 27.33078 -80.35031 17659 ft 623 kts 349°
2026-05-08 00:20 27.37350 -80.35862 17596 ft 622 kts 347°
2026-05-08 00:20 27.41599 -80.36746 17563 ft 621 kts 348°
2026-05-08 00:20 27.45871 -80.37546 17543 ft 622 kts 349°
2026-05-08 00:20 27.50173 -80.38216 17466 ft 624 kts 351°
2026-05-08 00:21 27.54483 -80.38793 16685 ft 626 kts 352°
2026-05-08 00:21 27.58817 -80.39309 15976 ft 628 kts 352°
2026-05-08 00:21 27.63182 -80.39783 15274 ft 631 kts 353°
2026-05-08 00:21 27.67508 -80.40211 14616 ft 634 kts 353°
2026-05-08 00:22 27.71933 -80.40309 13999 ft 640 kts
2026-05-08 00:22 27.76299 -80.39250 13374 ft 646 kts 17°
2026-05-08 00:22 27.80544 -80.37511 12655 ft 650 kts 20°
2026-05-08 00:22 27.84737 -80.35565 11946 ft 654 kts 21°
2026-05-08 00:23 27.88929 -80.33535 11245 ft 657 kts 22°
2026-05-08 00:23 27.93083 -80.31489 10625 ft 614 kts 22°
2026-05-08 00:23 27.96662 -80.29701 10037 ft 522 kts 22°
2026-05-08 00:23 27.99780 -80.28127 9360 ft 464 kts 22°
2026-05-08 00:24 28.02598 -80.26692 8636 ft 427 kts 22°
2026-05-08 00:24 28.05229 -80.25345 7908 ft 410 kts 22°
2026-05-08 00:24 28.07864 -80.24246 7208 ft 397 kts
2026-05-08 00:24 28.10602 -80.24064 6528 ft 391 kts 356°
2026-05-08 00:25 28.13292 -80.24188 5799 ft 384 kts 354°
2026-05-08 00:25 28.15954 -80.24395 5073 ft 381 kts 353°
2026-05-08 00:25 28.18590 -80.24626 4334 ft 378 kts 354°
2026-05-08 00:25 28.21105 -80.25173 3653 ft 353 kts 333°
2026-05-08 00:26 28.22914 -80.26717 3307 ft 312 kts 305°
2026-05-08 00:26 28.23683 -80.28836 3133 ft 289 kts 273°
2026-05-08 00:26 28.23301 -80.31026 3068 ft 284 kts 241°
2026-05-08 00:26 28.21967 -80.32726 3025 ft 289 kts 221°
2026-05-08 00:27 28.20549 -80.34316 2975 ft 286 kts 233°
2026-05-08 00:27 28.19538 -80.36264 2959 ft 284 kts 245°
2026-05-08 00:27 28.18433 -80.38142 2960 ft 286 kts 230°
2026-05-08 00:27 28.16955 -80.39682 2964 ft 289 kts 218°
2026-05-08 00:28 28.15270 -80.40929 2976 ft 282 kts 213°
2026-05-08 00:28 28.13668 -80.41997 2986 ft 265 kts 212°
2026-05-08 00:28 28.12169 -80.42993 3011 ft 239 kts 214°
2026-05-08 00:28 28.10835 -80.44114 3013 ft 237 kts 223°
2026-05-08 00:29 28.09620 -80.45380 3013 ft 234 kts 226°
2026-05-08 00:29 28.08498 -80.46753 3023 ft 237 kts 234°
2026-05-08 00:29 28.07566 -80.48284 3024 ft 236 kts 239°
2026-05-08 00:29 28.06710 -80.49869 3016 ft 231 kts 241°
2026-05-08 00:30 28.05923 -80.51474 3005 ft 237 kts 243°
2026-05-08 00:30 28.05243 -80.53146 3012 ft 236 kts 251°
2026-05-08 00:30 28.04759 -80.54905 3033 ft 233 kts 255°
2026-05-08 00:30 28.04369 -80.56699 3055 ft 234 kts 258°
2026-05-08 00:31 28.04064 -80.58521 3055 ft 235 kts 263°
2026-05-08 00:31 28.03977 -80.60376 3085 ft 236 kts 269°
2026-05-08 00:31 28.03984 -80.62201 3046 ft 236 kts 271°
2026-05-08 00:31 28.04046 -80.63909 3040 ft 181 kts 273°
2026-05-08 00:32 28.04209 -80.65331 3043 ft 181 kts 281°
2026-05-08 00:32 28.04499 -80.66743 3040 ft 184 kts 283°
2026-05-08 00:32 28.05142 -80.67953 3057 ft 189 kts 326°
2026-05-08 00:32 28.06422 -80.68212 3120 ft 199 kts 12°
2026-05-08 00:33 28.07725 -80.67713 2931 ft 184 kts 20°
2026-05-08 00:33 28.08864 -80.67154 2722 ft 177 kts 22°
2026-05-08 00:33 28.09985 -80.66571 2476 ft 178 kts 22°
2026-05-08 00:33 28.11099 -80.65997 2215 ft 174 kts 20°
2026-05-08 00:34 28.12230 -80.65513 2000 ft 170 kts 17°
2026-05-08 00:34 28.13380 -80.65079 1759 ft 175 kts 16°
2026-05-08 00:34 28.14535 -80.64632 1561 ft 175 kts 18°
2026-05-08 00:34 28.15664 -80.64170 1406 ft 175 kts 19°
2026-05-08 00:35 28.16810 -80.63679 1214 ft 177 kts 20°
2026-05-08 00:35 28.17953 -80.63204 920 ft 178 kts 20°
2026-05-08 00:35 28.19102 -80.62750 731 ft 171 kts 22°
2026-05-08 00:35 28.20247 -80.62300 493 ft 178 kts 25°
2026-05-08 00:36 28.21371 -80.61821 191 ft 171 kts 23°
2026-05-08 00:36 28.22492 -80.61351 15 ft 174 kts 21°
2026-05-08 00:36 28.23300 -80.61022 12 ft 69 kts 18°
2026-05-08 00:36 28.23714 -80.60841 14 ft 60 kts 24°
2026-05-08 00:37 28.24064 -80.60825 17 ft 42 kts 329°
2026-05-08 00:37 28.24298 -80.60987 15 ft 39 kts 329°
2026-05-08 00:37 28.24460 -80.61129 15 ft 16 kts 279°